This is the latest recevied weather packets stored in our database for station/object EB5AGF-13. If no packets are shown the sender has not sent any weather packets the latest 10 day(s).
| Time | Temp. | Humidity | Pressure | Rain* | Wind** | Luminosity | Snow |
|---|---|---|---|---|---|---|---|
| 1777930936 | 18.89° C | 83% | 1008.5 hPa | 0 mm | 0 m/s | 0 W/m² | - |
| 1777930633 | 18.89° C | 82% | 1008.8 hPa | 0 mm | 0 m/s | 0 W/m² | - |
| 1777930328 | 18.89° C | 82% | 1008.9 hPa | 0 mm | 0.45 m/s, 273° | 0 W/m² | - |
| 1777930024 | 18.89° C | 82% | 1009 hPa | 0 mm | 0.45 m/s, 257° | 0 W/m² | - |
| 1777929720 | 18.89° C | 82% | 1008.8 hPa | 0 mm | 1.34 m/s, 184° | 0 W/m² | - |
| 1777929417 | 18.89° C | 82% | 1008.7 hPa | 0 mm | 0.45 m/s, 212° | 0 W/m² | - |
| 1777929112 | 18.89° C | 82% | 1008.4 hPa | 0 mm | 0.45 m/s, 237° | 0 W/m² | - |
| 1777928808 | 18.89° C | 82% | 1008.2 hPa | 0 mm | 0.45 m/s, 235° | 0 W/m² | - |
| 1777928504 | 18.89° C | 82% | 1008.5 hPa | 0 mm | 0.45 m/s, 272° | 0 W/m² | - |
| 1777928200 | 18.89° C | 82% | 1008.6 hPa | 0 mm | 0.89 m/s, 192° | 0 W/m² | - |
| 1777927896 | 18.89° C | 82% | 1008.4 hPa | 0 mm | 0.89 m/s, 307° | 0 W/m² | - |
| 1777927592 | 18.89° C | 82% | 1008.1 hPa | 0 mm | 0.89 m/s, 226° | 0 W/m² | - |
| 1777927288 | 19.44° C | 81% | 1008.2 hPa | 0 mm | 0.89 m/s, 315° | 0 W/m² | - |
| 1777926984 | 19.44° C | 81% | 1008.4 hPa | 0 mm | 0.89 m/s, 249° | 0 W/m² | - |
| 1777926680 | 19.44° C | 81% | 1008.1 hPa | 0 mm | 0.89 m/s, 190° | 0 W/m² | - |
| 1777926377 | 19.44° C | 80% | 1008.2 hPa | 0 mm | 2.68 m/s, 148° | 0 W/m² | - |
| 1777926072 | 19.44° C | 80% | 1008.2 hPa | 0 mm | 0.45 m/s, 111° | 0 W/m² | - |
| 1777925768 | 19.44° C | 79% | 1008 hPa | 0 mm | 1.34 m/s, 179° | 0 W/m² | - |
| 1777925464 | 19.44° C | 79% | 1008.2 hPa | 0 mm | 0.89 m/s, 197° | 0 W/m² | - |
| 1777925160 | 19.44° C | 79% | 1007.9 hPa | 0 mm | 0.45 m/s, 202° | 0 W/m² | - |
| 1777924856 | 19.44° C | 78% | 1007.9 hPa | 0 mm | 0.89 m/s, 197° | 0 W/m² | - |
| 1777924552 | 19.44° C | 78% | 1007.9 hPa | 0 mm | 0.89 m/s, 226° | 0 W/m² | - |
| 1777924250 | 19.44° C | 78% | 1007.9 hPa | 0 mm | 1.79 m/s, 200° | 0 W/m² | - |
| 1777923944 | 19.44° C | 78% | 1007.8 hPa | 0 mm | 0.89 m/s, 235° | 0 W/m² | - |
| 1777923640 | 19.44° C | 78% | 1007.7 hPa | 0 mm | 0.89 m/s, 232° | 0 W/m² | - |
* Rain latest hour (hover to see other rain measurements)
** Current wind speed in m/s (hover to see current wind gust speed)